| time (UTC) | temp F | wind direction | speed knots | gust knots | rain 1hr in | rain 24hr in | rain mn in | humidity % | barometer mb |
| 20260504160240 | 68 | 156 | 4.3 | 15.6 | 0.00 | 0.00 | 0.00 | 84 | 1009.0 |
| 20260504151051 | 68 | 177 | 5.2 | 8.7 | 0.00 | 0.00 | 0.00 | 84 | 1012.9 |
| 20260504150741 | 68 | 228 | 9.6 | 15.6 | 0.00 | 0.00 | 0.00 | 84 | 1009.2 |
| 20260504150551 | 68 | 234 | 9.6 | 17.4 | 0.00 | 0.00 | 0.00 | 83 | 1012.5 |
| 20260504150241 | 68 | 238 | 6.1 | 13.0 | 0.00 | 0.00 | 0.00 | 84 | 1009.2 |
| 20260504141241 | 67 | 232 | 11.3 | 14.8 | 0.00 | 0.00 | 0.00 | 84 | 1009.4 |
| 20260504141051 | 67 | 207 | 7.8 | 10.4 | 0.00 | 0.00 | 0.00 | 84 | 1012.9 |
| 20260504140741 | 68 | 225 | 9.6 | 13.0 | 0.00 | 0.00 | 0.00 | 83 | 1009.6 |
| 20260504140551 | 67 | 217 | 7.0 | 10.4 | 0.00 | 0.00 | 0.00 | 84 | 1012.9 |
| 20260504140241 | 67 | 225 | 9.6 | 13.0 | 0.00 | 0.00 | 0.00 | 83 | 1009.5 |
| 20260504130740 | 69 | 294 | 3.5 | 8.7 | 0.00 | 0.00 | 0.00 | 76 | 1009.7 |
| 20260504130551 | 70 | 245 | 4.3 | 9.6 | 0.00 | 0.00 | 0.00 | 76 | 1013.2 |
| 20260504130240 | 69 | 207 | 2.6 | 9.6 | 0.00 | 0.00 | 0.00 | 73 | 1009.8 |
| 20260504120241 | 68 | 232 | 3.5 | 7.8 | 0.00 | 0.00 | 0.00 | 79 | 1010.1 |
| 20260504110551 | 68 | 180 | 2.6 | 5.2 | 0.00 | 0.00 | 0.00 | 76 | 1013.5 |
| 20260504110241 | 68 | 195 | 4.3 | 4.3 | 0.00 | 0.00 | 0.00 | 77 | 1010.0 |
| 20260504100553 | 68 | 175 | 9.6 | 9.6 | 0.00 | 0.00 | 0.00 | 77 | 1014.2 |
| 20260504100240 | 68 | 172 | 4.3 | 8.7 | 0.00 | 0.00 | 0.00 | 77 | 1010.3 |
| 20260504081740 | 68 | 157 | 6.1 | 7.8 | 0.00 | 0.00 | 0.00 | 77 | 1010.7 |
| 20260504081550 | 68 | 168 | 5.2 | 5.2 | 0.00 | 0.00 | 0.00 | 78 | 1013.9 |
| 20260504081241 | 68 | 173 | 6.1 | 5.2 | 0.00 | 0.00 | 0.00 | 78 | 1010.7 |
| 20260504081051 | 68 | 208 | 3.5 | 5.2 | 0.00 | 0.00 | 0.00 | 78 | 1014.2 |
| 20260504080741 | 67 | 212 | 1.7 | 4.3 | 0.00 | 0.00 | 0.00 | 78 | 1010.6 |
| 20260504080551 | 67 | 147 | 0.9 | 1.7 | 0.00 | 0.00 | 0.00 | 79 | 1014.2 |
| 20260504080241 | 67 | 145 | 1.7 | 3.5 | 0.00 | 0.00 | 0.00 | 80 | 1010.9 |
| 20260504070241 | 65 | 164 | 3.5 | 4.3 | 0.00 | 0.00 | 0.00 | 87 | 1010.7 |
| 20260504060241 | 63 | 148 | 1.7 | 3.5 | 0.00 | 0.00 | 0.00 | 91 | 1010.7 |
| 20260504050740 | 63 | 116 | 1.7 | 2.6 | 0.00 | 0.00 | 0.00 | 91 | 1010.6 |
| 20260504050550 | 63 | 158 | 0.9 | 2.6 | 0.00 | 0.00 | 0.00 | 91 | 1013.5 |
| 20260504050241 | 63 | 139 | 0.9 | 2.6 | 0.00 | 0.00 | 0.00 | 91 | 1010.5 |
| 20260504045740 | 63 | 174 | 0.9 | 3.5 | 0.00 | 0.00 | 0.00 | 90 | 1010.7 |
| 20260504045551 | 63 | 127 | 0.9 | 1.7 | 0.00 | 0.00 | 0.00 | 90 | 1013.9 |
| 20260504045241 | 63 | 157 | 2.6 | 3.5 | 0.00 | 0.00 | 0.00 | 90 | 1010.5 |
| 20260504045050 | 63 | 166 | 3.5 | 3.5 | 0.00 | 0.00 | 0.00 | 90 | 1014.2 |
| 20260504044740 | 64 | 134 | 3.5 | 3.5 | 0.00 | 0.00 | 0.00 | 90 | 1010.5 |
| 20260504044550 | 64 | 165 | 2.6 | 3.5 | 0.00 | 0.00 | 0.00 | 90 | 1013.9 |
| 20260504044240 | 64 | 166 | 2.6 | 3.5 | 0.00 | 0.00 | 0.00 | 90 | 1010.6 |
| 20260504044050 | 64 | 168 | 2.6 | 3.5 | 0.00 | 0.00 | 0.00 | 90 | 1014.2 |
| 20260504043740 | 64 | 181 | 3.5 | 5.2 | 0.00 | 0.00 | 0.00 | 90 | 1010.6 |
| 20260504043550 | 64 | 179 | 3.5 | 4.3 | 0.00 | 0.00 | 0.00 | 90 | 1013.9 |
| 20260504043241 | 64 | 198 | 2.6 | 5.2 | 0.00 | 0.00 | 0.00 | 90 | 1010.6 |
| 20260504043050 | 64 | 181 | 4.3 | 4.3 | 0.00 | 0.00 | 0.00 | 90 | 1013.9 |
| 20260504042740 | 64 | 198 | 2.6 | 4.3 | 0.00 | 0.00 | 0.00 | 90 | 1010.5 |
| 20260504042551 | 64 | 173 | 2.6 | 3.5 | 0.00 | 0.00 | 0.00 | 90 | 1013.9 |
| 20260504042241 | 64 | 170 | 2.6 | 5.2 | 0.00 | 0.00 | 0.00 | 90 | 1010.3 |
| 20260504042050 | 64 | 166 | 5.2 | 5.2 | 0.00 | 0.00 | 0.00 | 90 | 1013.5 |
| 20260504041740 | 64 | 155 | 2.6 | 3.5 | 0.00 | 0.00 | 0.00 | 90 | 1010.5 |
| 20260504041550 | 64 | 161 | 3.5 | 5.2 | 0.00 | 0.00 | 0.00 | 90 | 1013.9 |
| 20260504041240 | 64 | 155 | 2.6 | 3.5 | 0.00 | 0.00 | 0.00 | 90 | 1010.7 |
| 20260504041051 | 64 | 170 | 3.5 | 3.5 | 0.00 | 0.00 | 0.00 | 90 | 1014.2 |
| 20260504040741 | 64 | 189 | 2.6 | 4.3 | 0.00 | 0.00 | 0.00 | 90 | 1010.7 |
| 20260504040550 | 64 | 184 | 3.5 | 3.5 | 0.00 | 0.00 | 0.00 | 90 | 1014.2 |
| 20260504040240 | 64 | 176 | 3.5 | 4.3 | 0.00 | 0.00 | 0.00 | 89 | 1010.8 |
| 20260504040050 | 64 | 162 | 3.5 | 4.3 | 0.00 | 0.00 | 0.00 | 90 | 1014.2 |
| 20260504035740 | 64 | 172 | 2.6 | 4.3 | 0.00 | 0.00 | 0.00 | 89 | 1010.8 |
| 20260504035552 | 64 | 179 | 4.3 | 4.3 | 0.00 | 0.00 | 0.00 | 89 | 1014.2 |
| 20260504035240 | 64 | 176 | 3.5 | 4.3 | 0.00 | 0.00 | 0.00 | 89 | 1010.9 |
| 20260504035050 | 64 | 187 | 5.2 | 5.2 | 0.00 | 0.00 | 0.00 | 89 | 1014.2 |
| 20260504034740 | 64 | 185 | 2.6 | 4.3 | 0.00 | 0.00 | 0.00 | 89 | 1010.5 |
| 20260504034551 | 64 | 177 | 3.5 | 4.3 | 0.00 | 0.00 | 0.00 | 89 | 1014.2 |
| 20260504034240 | 64 | 185 | 2.6 | 4.3 | 0.00 | 0.00 | 0.00 | 89 | 1010.8 |
| 20260504034051 | 64 | 174 | 5.2 | 6.1 | 0.00 | 0.00 | 0.00 | 89 | 1014.2 |
| 20260504033740 | 64 | 169 | 1.7 | 4.3 | 0.00 | 0.00 | 0.00 | 89 | 1010.9 |
| 20260504033551 | 64 | 168 | 3.5 | 4.3 | 0.00 | 0.00 | 0.00 | 89 | 1014.2 |
| 20260504033241 | 64 | 175 | 4.3 | 6.1 | 0.00 | 0.00 | 0.00 | 89 | 1010.9 |
| 20260504033051 | 64 | 178 | 6.1 | 6.1 | 0.00 | 0.00 | 0.00 | 89 | 1014.2 |
| 20260504032741 | 64 | 191 | 2.6 | 7.0 | 0.00 | 0.00 | 0.00 | 89 | 1010.9 |
| 20260504032551 | 64 | 172 | 5.2 | 6.1 | 0.00 | 0.00 | 0.00 | 89 | 1014.2 |
| 20260504032240 | 64 | 174 | 3.5 | 6.1 | 0.00 | 0.00 | 0.00 | 89 | 1011.0 |
| 20260504032051 | 64 | 176 | 5.2 | 6.1 | 0.00 | 0.00 | 0.00 | 89 | 1014.2 |
| 20260504031741 | 64 | 174 | 2.6 | 4.3 | 0.00 | 0.00 | 0.00 | 89 | 1010.9 |
| 20260504031551 | 64 | 187 | 3.5 | 3.5 | 0.00 | 0.00 | 0.00 | 89 | 1014.6 |
| 20260504031240 | 64 | 168 | 3.5 | 5.2 | 0.00 | 0.00 | 0.00 | 89 | 1011.0 |
| 20260504031050 | 64 | 164 | 2.6 | 3.5 | 0.00 | 0.00 | 0.00 | 89 | 1014.2 |
| 20260504030741 | 64 | 176 | 5.2 | 5.2 | 0.00 | 0.00 | 0.00 | 89 | 1011.0 |
| 20260504030550 | 64 | 165 | 2.6 | 5.2 | 0.00 | 0.00 | 0.00 | 89 | 1014.2 |
| 20260504030240 | 64 | 167 | 2.6 | 3.5 | 0.00 | 0.00 | 0.00 | 89 | 1011.0 |
| 20260504030051 | 64 | 171 | 3.5 | 4.3 | 0.00 | 0.00 | 0.00 | 89 | 1014.2 |
| 20260504025741 | 64 | 170 | 2.6 | 4.3 | 0.00 | 0.00 | 0.00 | 89 | 1011.0 |
| 20260504025550 | 64 | 219 | 2.6 | 3.5 | 0.00 | 0.00 | 0.00 | 89 | 1014.2 |
| 20260504025240 | 64 | 170 | 2.6 | 4.3 | 0.00 | 0.00 | 0.00 | 89 | 1010.9 |
| 20260504025050 | 64 | 194 | 1.7 | 3.5 | 0.00 | 0.00 | 0.00 | 89 | 1014.2 |
| 20260504024741 | 64 | 196 | 1.7 | 4.3 | 0.00 | 0.00 | 0.00 | 89 | 1011.0 |
| 20260504024550 | 64 | 151 | 2.6 | 5.2 | 0.00 | 0.00 | 0.00 | 89 | 1014.2 |
| 20260504024240 | 64 | 189 | 5.2 | 5.2 | 0.00 | 0.00 | 0.00 | 88 | 1010.9 |
| 20260504024052 | 64 | 212 | 3.5 | 4.3 | 0.00 | 0.00 | 0.00 | 88 | 1014.2 |
| 20260504023741 | 64 | 208 | 2.6 | 4.3 | 0.00 | 0.00 | 0.00 | 88 | 1010.7 |
| 20260504023550 | 64 | 201 | 0.0 | 3.5 | 0.00 | 0.00 | 0.00 | 88 | 1014.2 |
| 20260504023240 | 64 | 196 | 3.5 | 4.3 | 0.00 | 0.00 | 0.00 | 88 | 1010.8 |
| 20260504023051 | 64 | 238 | 1.7 | 5.2 | 0.00 | 0.00 | 0.00 | 88 | 1014.2 |
| 20260504022741 | 65 | 211 | 3.5 | 4.3 | 0.00 | 0.00 | 0.00 | 89 | 1010.6 |
| 20260504022550 | 65 | 221 | 3.5 | 5.2 | 0.00 | 0.00 | 0.00 | 89 | 1013.9 |
| 20260504022240 | 65 | 216 | 4.3 | 6.1 | 0.00 | 0.00 | 0.00 | 89 | 1010.8 |
| 20260504022051 | 65 | 205 | 4.3 | 5.2 | 0.00 | 0.00 | 0.00 | 89 | 1014.2 |
| 20260504021740 | 65 | 241 | 3.5 | 6.1 | 0.00 | 0.00 | 0.00 | 89 | 1011.0 |
| 20260504021551 | 65 | 190 | 3.5 | 7.8 | 0.00 | 0.00 | 0.00 | 89 | 1014.2 |
| 20260504021240 | 65 | 241 | 3.5 | 6.1 | 0.00 | 0.00 | 0.00 | 89 | 1010.8 |
| 20260504021050 | 65 | 249 | 4.3 | 7.0 | 0.00 | 0.00 | 0.00 | 89 | 1014.2 |
| 20260504020740 | 65 | 196 | 3.5 | 8.7 | 0.00 | 0.00 | 0.00 | 89 | 1010.8 |
| 20260504020551 | 65 | 192 | 6.1 | 8.7 | 0.00 | 0.00 | 0.00 | 89 | 1014.2 |
| 20260504020241 | 65 | 196 | 2.6 | 8.7 | 0.00 | 0.00 | 0.00 | 89 | 1010.9 |
| 20260504020050 | 65 | 172 | 6.1 | 7.0 | 0.00 | 0.00 | 0.00 | 89 | 1014.2 |
| 20260504015741 | 65 | 248 | 3.5 | 8.7 | 0.00 | 0.00 | 0.00 | 89 | 1010.9 |
| 20260504015550 | 65 | 197 | 6.1 | 7.0 | 0.00 | 0.00 | 0.00 | 89 | 1014.2 |
| 20260504015240 | 65 | 181 | 2.6 | 8.7 | 0.00 | 0.00 | 0.00 | 88 | 1011.0 |
| 20260504015051 | 65 | 194 | 2.6 | 11.3 | 0.00 | 0.00 | 0.00 | 88 | 1014.2 |
| 20260504014740 | 65 | 176 | 6.1 | 8.7 | 0.00 | 0.00 | 0.00 | 88 | 1011.0 |
| 20260504014551 | 65 | 200 | 2.6 | 7.8 | 0.00 | 0.00 | 0.00 | 88 | 1014.2 |
| 20260504014240 | 65 | 205 | 6.1 | 8.7 | 0.00 | 0.00 | 0.00 | 88 | 1010.9 |
| 20260504014050 | 65 | 207 | 5.2 | 5.2 | 0.00 | 0.00 | 0.00 | 88 | 1014.6 |
| 20260504013741 | 65 | 167 | 9.6 | 9.6 | 0.00 | 0.00 | 0.00 | 88 | 1010.9 |
| 20260504013550 | 65 | 182 | 3.5 | 9.6 | 0.00 | 0.00 | 0.00 | 88 | 1014.2 |
| 20260504013241 | 65 | 155 | 6.1 | 13.0 | 0.00 | 0.00 | 0.00 | 89 | 1010.7 |
| 20260504013050 | 65 | 189 | 2.6 | 7.0 | 0.00 | 0.00 | 0.00 | 89 | 1014.2 |
| 20260504012740 | 65 | 166 | 4.3 | 11.3 | 0.00 | 0.00 | 0.00 | 89 | 1011.0 |
| 20260504012550 | 65 | 185 | 7.8 | 11.3 | 0.00 | 0.00 | 0.00 | 89 | 1014.2 |
| 20260504012241 | 65 | 166 | 1.7 | 11.3 | 0.00 | 0.00 | 0.00 | 89 | 1010.9 |
| 20260504012050 | 65 | 210 | 7.8 | 11.3 | 0.00 | 0.00 | 0.00 | 89 | 1014.2 |
| 20260504011740 | 65 | 179 | 10.4 | 13.0 | 0.00 | 0.00 | 0.00 | 90 | 1011.0 |
| 20260504011550 | 65 | 197 | 2.6 | 11.3 | 0.00 | 0.00 | 0.00 | 89 | 1014.2 |
| 20260504011241 | 65 | 179 | 10.4 | 13.0 | 0.00 | 0.00 | 0.00 | 90 | 1011.1 |
| 20260504011050 | 65 | 165 | 4.3 | 7.8 | 0.00 | 0.00 | 0.00 | 90 | 1014.6 |
| 20260504010741 | 65 | 219 | 7.0 | 12.2 | 0.00 | 0.00 | 0.00 | 90 | 1011.4 |
| 20260504010550 | 65 | 197 | 4.3 | 12.2 | 0.00 | 0.00 | 0.00 | 90 | 1014.9 |
| 20260504010241 | 65 | 173 | 7.8 | 11.3 | 0.00 | 0.00 | 0.00 | 90 | 1011.6 |
| 20260504010050 | 65 | 175 | 12.2 | 13.0 | 0.00 | 0.00 | 0.00 | 90 | 1014.9 |
| 20260504005741 | 65 | 188 | 7.8 | 10.4 | 0.00 | 0.00 | 0.00 | 90 | 1011.6 |
| 20260504005550 | 65 | 227 | 4.3 | 13.0 | 0.00 | 0.00 | 0.00 | 90 | 1014.9 |
| 20260504005241 | 65 | 188 | 7.8 | 10.4 | 0.00 | 0.00 | 0.00 | 90 | 1011.5 |
| 20260504005050 | 64 | 144 | 2.6 | 12.2 | 0.00 | 0.00 | 0.00 | 90 | 1014.9 |
| 20260504004741 | 64 | 182 | 4.3 | 11.3 | 0.00 | 0.00 | 0.00 | 90 | 1011.5 |
| 20260504004550 | 64 | 202 | 5.2 | 12.2 | 0.00 | 0.00 | 0.00 | 90 | 1014.9 |
| 20260504004240 | 64 | 154 | 4.3 | 12.2 | 0.00 | 0.00 | 0.00 | 90 | 1011.4 |
| 20260504004050 | 64 | 197 | 4.3 | 13.0 | 0.00 | 0.00 | 0.00 | 90 | 1014.9 |
| 20260504003741 | 64 | 154 | 5.2 | 12.2 | 0.00 | 0.00 | 0.00 | 90 | 1011.6 |
| 20260504003551 | 64 | 235 | 6.1 | 7.8 | 0.00 | 0.00 | 0.00 | 90 | 1014.9 |
| 20260504003241 | 64 | 160 | 6.1 | 10.4 | 0.00 | 0.00 | 0.00 | 90 | 1011.4 |
| 20260504003051 | 64 | 160 | 6.1 | 11.3 | 0.00 | 0.00 | 0.00 | 90 | 1014.9 |
| 20260504002740 | 64 | 174 | 12.2 | 13.9 | 0.00 | 0.00 | 0.00 | 91 | 1011.2 |
| 20260504002551 | 64 | 161 | 13.9 | 14.8 | 0.00 | 0.00 | 0.00 | 91 | 1014.9 |
| 20260504002240 | 64 | 173 | 8.7 | 13.9 | 0.00 | 0.00 | 0.00 | 91 | 1011.3 |
| 20260504002050 | 64 | 170 | 7.8 | 12.2 | 0.00 | 0.00 | 0.00 | 91 | 1014.6 |
| 20260504001740 | 64 | 180 | 8.7 | 15.6 | 0.00 | 0.00 | 0.00 | 91 | 1011.0 |
| 20260504001550 | 64 | 171 | 10.4 | 13.0 | 0.00 | 0.00 | 0.00 | 91 | 1014.9 |
| 20260504001240 | 64 | 169 | 10.4 | 13.0 | 0.00 | 0.00 | 0.00 | 91 | 1011.3 |
| 20260504001051 | 64 | 242 | 6.1 | 14.8 | 0.00 | 0.00 | 0.00 | 91 | 1014.6 |
| 20260504000740 | 64 | 174 | 9.6 | 11.3 | 0.00 | 0.00 | 0.00 | 91 | 1011.2 |
| 20260504000550 | 65 | 165 | 7.8 | 11.3 | 0.00 | 0.00 | 0.00 | 91 | 1014.6 |
| 20260504000241 | 65 | 174 | 9.6 | 11.3 | 0.00 | 0.00 | 0.00 | 91 | 1011.0 |
| 20260504000051 | 65 | 169 | 7.8 | 11.3 | 0.00 | 0.00 | 0.00 | 91 | 1014.6 |
| 20260503235741 | 64 | 177 | 7.8 | 11.3 | 0.00 | 0.00 | 0.00 | 91 | 1010.9 |
| 20260503235550 | 64 | 173 | 8.7 | 13.9 | 0.00 | 0.00 | 0.00 | 91 | 1014.6 |
| 20260503235240 | 65 | 167 | 9.6 | 12.2 | 0.00 | 0.00 | 0.00 | 91 | 1011.1 |
| 20260503235051 | 65 | 166 | 9.6 | 12.2 | 0.00 | 0.00 | 0.00 | 91 | 1014.6 |
| 20260503234740 | 65 | 169 | 5.2 | 11.3 | 0.00 | 0.00 | 0.00 | 91 | 1011.1 |
| 20260503234550 | 65 | 174 | 8.7 | 10.4 | 0.00 | 0.00 | 0.00 | 91 | 1014.6 |
| 20260503234241 | 65 | 169 | 7.8 | 13.0 | 0.00 | 0.00 | 0.00 | 91 | 1011.1 |
| 20260503234050 | 65 | 170 | 7.0 | 8.7 | 0.00 | 0.00 | 0.00 | 91 | 1014.6 |
| 20260503233741 | 65 | 169 | 7.8 | 13.0 | 0.00 | 0.00 | 0.00 | 91 | 1011.3 |
| 20260503233551 | 65 | 168 | 4.3 | 9.6 | 0.00 | 0.00 | 0.00 | 91 | 1014.6 |
| 20260503233240 | 65 | 167 | 7.0 | 13.0 | 0.00 | 0.00 | 0.00 | 91 | 1011.3 |
| 20260503233051 | 65 | 177 | 6.1 | 12.2 | 0.00 | 0.00 | 0.00 | 91 | 1014.9 |
| 20260503232740 | 65 | 163 | 8.7 | 11.3 | 0.00 | 0.00 | 0.00 | 91 | 1011.3 |
| 20260503232551 | 64 | 177 | 4.3 | 13.0 | 0.00 | 0.00 | 0.00 | 91 | 1014.6 |
| 20260503232240 | 64 | 163 | 8.7 | 11.3 | 0.00 | 0.00 | 0.00 | 91 | 1011.3 |
| 20260503232050 | 64 | 177 | 5.2 | 12.2 | 0.00 | 0.00 | 0.00 | 91 | 1014.6 |
| 20260503231740 | 64 | 180 | 6.1 | 11.3 | 0.00 | 0.00 | 0.00 | 91 | 1011.4 |
| 20260503231551 | 64 | 169 | 7.0 | 11.3 | 0.00 | 0.00 | 0.00 | 91 | 1014.9 |
| 20260503231240 | 64 | 166 | 10.4 | 15.6 | 0.00 | 0.00 | 0.00 | 91 | 1011.5 |
| 20260503231051 | 64 | 185 | 9.6 | 14.8 | 0.00 | 0.00 | 0.00 | 91 | 1014.9 |
| 20260503230740 | 64 | 170 | 11.3 | 19.1 | 0.00 | 0.00 | 0.00 | 91 | 1011.4 |
| 20260503230550 | 64 | 173 | 7.8 | 13.9 | 0.00 | 0.00 | 0.00 | 91 | 1014.9 |
| 20260503230241 | 64 | 168 | 11.3 | 13.0 | 0.00 | 0.00 | 0.00 | 91 | 1011.5 |
| 20260503230050 | 64 | 175 | 7.8 | 14.8 | 0.00 | 0.00 | 0.00 | 91 | 1014.9 |
| 20260503225741 | 64 | 162 | 6.1 | 18.2 | 0.02 | 0.00 | 0.00 | 91 | 1011.4 |
| 20260503225550 | 64 | 174 | 9.6 | 16.5 | 0.00 | 0.00 | 0.00 | 91 | 1014.9 |
| 20260503225240 | 64 | 154 | 9.6 | 16.5 | 0.02 | 0.00 | 0.00 | 91 | 1011.5 |
| 20260503225050 | 64 | 166 | 12.2 | 13.0 | 0.00 | 0.00 | 0.00 | 91 | 1014.9 |
| 20260503224740 | 64 | 166 | 13.0 | 16.5 | 0.02 | 0.00 | 0.00 | 91 | 1011.6 |
| 20260503224551 | 64 | 159 | 9.6 | 13.0 | 0.00 | 0.00 | 0.00 | 91 | 1014.6 |
| 20260503224241 | 64 | 166 | 11.3 | 16.5 | 0.02 | 0.00 | 0.00 | 91 | 1011.4 |
| 20260503224051 | 64 | 171 | 9.6 | 14.8 | 0.00 | 0.00 | 0.00 | 91 | 1014.9 |
| 20260503223741 | 64 | 137 | 9.6 | 15.6 | 0.02 | 0.00 | 0.00 | 91 | 1011.4 |
| 20260503223551 | 64 | 186 | 12.2 | 13.9 | 0.00 | 0.00 | 0.00 | 91 | 1014.9 |
| 20260503223241 | 64 | 172 | 13.0 | 16.5 | 0.02 | 0.00 | 0.00 | 91 | 1011.4 |
| 20260503223050 | 64 | 165 | 13.9 | 18.2 | 0.00 | 0.00 | 0.00 | 91 | 1014.9 |
| 20260503222741 | 64 | 154 | 4.3 | 14.8 | 0.02 | 0.00 | 0.00 | 91 | 1011.3 |
| 20260503222550 | 64 | 163 | 8.7 | 15.6 | 0.00 | 0.00 | 0.00 | 91 | 1014.9 |
| 20260503222241 | 64 | 162 | 9.6 | 14.8 | 0.02 | 0.00 | 0.00 | 91 | 1011.5 |
| 20260503222051 | 64 | 145 | 5.2 | 14.8 | 0.00 | 0.00 | 0.00 | 90 | 1014.9 |
| 20260503221740 | 64 | 162 | 9.6 | 16.5 | 0.02 | 0.00 | 0.00 | 90 | 1011.4 |
| 20260503221550 | 64 | 180 | 6.1 | 13.0 | 0.00 | 0.00 | 0.00 | 90 | 1014.6 |
| 20260503221240 | 64 | 164 | 9.6 | 12.2 | 0.02 | 0.00 | 0.00 | 90 | 1011.3 |
| 20260503221050 | 64 | 168 | 7.8 | 15.6 | 0.00 | 0.00 | 0.00 | 90 | 1014.9 |
| 20260503220740 | 64 | 173 | 8.7 | 14.8 | 0.02 | 0.00 | 0.00 | 89 | 1011.5 |
| 20260503220550 | 65 | 181 | 8.7 | 17.4 | 0.00 | 0.00 | 0.00 | 89 | 1014.9 |
| 20260503220241 | 65 | 174 | 12.2 | 15.6 | 0.00 | 0.00 | 0.00 | 89 | 1011.5 |
| 20260503220050 | 65 | 157 | 9.6 | 13.0 | 0.00 | 0.00 | 0.00 | 89 | 1014.6 |
| 20260503215741 | 65 | 166 | 10.4 | 13.9 | 0.00 | 0.00 | 0.00 | 89 | 1011.3 |
| 20260503215550 | 65 | 151 | 7.8 | 12.2 | 0.00 | 0.00 | 0.00 | 89 | 1014.6 |
| 20260503215241 | 65 | 160 | 9.6 | 14.8 | 0.00 | 0.00 | 0.00 | 88 | 1011.3 |
| 20260503215051 | 65 | 152 | 11.3 | 13.9 | 0.00 | 0.00 | 0.00 | 88 | 1014.6 |
| 20260503214740 | 65 | 155 | 8.7 | 17.4 | 0.00 | 0.00 | 0.00 | 87 | 1011.2 |
| 20260503214550 | 65 | 148 | 3.5 | 11.3 | 0.00 | 0.00 | 0.00 | 88 | 1014.6 |
| 20260503214240 | 65 | 155 | 8.7 | 17.4 | 0.00 | 0.00 | 0.00 | 87 | 1011.1 |
| 20260503214050 | 65 | 149 | 7.0 | 11.3 | 0.00 | 0.00 | 0.00 | 87 | 1014.6 |
| 20260503213742 | 65 | 113 | 1.7 | 10.4 | 0.00 | 0.00 | 0.00 | 86 | 1011.2 |
| 20260503213550 | 65 | 133 | 8.7 | 11.3 | 0.00 | 0.00 | 0.00 | 87 | 1014.2 |
| 20260503213241 | 65 | 113 | 1.7 | 10.4 | 0.00 | 0.00 | 0.00 | 86 | 1011.2 |
| 20260503213051 | 65 | 128 | 7.8 | 10.4 | 0.00 | 0.00 | 0.00 | 86 | 1014.6 |
| 20260503212741 | 65 | 172 | 2.6 | 7.8 | 0.00 | 0.00 | 0.00 | 86 | 1011.2 |
| 20260503212550 | 65 | 171 | 6.1 | 8.7 | 0.00 | 0.00 | 0.00 | 86 | 1014.2 |
| 20260503212241 | 65 | 123 | 1.7 | 7.0 | 0.00 | 0.00 | 0.00 | 86 | 1010.8 |
| 20260503212050 | 65 | 162 | 5.2 | 6.1 | 0.00 | 0.00 | 0.00 | 86 | 1014.2 |
| 20260503211740 | 65 | 123 | 1.7 | 7.0 | 0.00 | 0.00 | 0.00 | 86 | 1010.8 |
| 20260503211550 | 65 | 159 | 5.2 | 9.6 | 0.00 | 0.00 | 0.00 | 85 | 1014.6 |
| 20260503211241 | 65 | 176 | 7.8 | 8.7 | 0.00 | 0.00 | 0.00 | 85 | 1011.1 |
| 20260503211050 | 65 | 154 | 2.6 | 7.8 | 0.00 | 0.00 | 0.00 | 85 | 1014.6 |
| 20260503210741 | 65 | 161 | 3.5 | 7.8 | 0.00 | 0.00 | 0.00 | 85 | 1010.8 |
| 20260503210550 | 65 | 159 | 3.5 | 7.8 | 0.00 | 0.00 | 0.00 | 85 | 1014.2 |
| 20260503210241 | 65 | 132 | 7.8 | 7.8 | 0.00 | 0.00 | 0.00 | 85 | 1011.0 |
| 20260503210050 | 65 | 133 | 7.0 | 7.8 | 0.00 | 0.00 | 0.00 | 85 | 1014.2 |
| 20260503205740 | 65 | 138 | 1.7 | 5.2 | 0.00 | 0.00 | 0.00 | 85 | 1010.8 |
| 20260503205550 | 65 | 123 | 1.7 | 7.8 | 0.00 | 0.00 | 0.00 | 85 | 1014.2 |
| 20260503205241 | 65 | 107 | 2.6 | 6.1 | 0.00 | 0.00 | 0.00 | 86 | 1010.8 |
| 20260503205050 | 65 | 123 | 9.6 | 9.6 | 0.00 | 0.00 | 0.00 | 86 | 1014.2 |
| 20260503204740 | 65 | 122 | 3.5 | 7.0 | 0.00 | 0.00 | 0.00 | 86 | 1011.1 |
| 20260503204550 | 65 | 147 | 5.2 | 8.7 | 0.00 | 0.00 | 0.00 | 86 | 1014.6 |
| 20260503204241 | 65 | 163 | 3.5 | 7.0 | 0.00 | 0.00 | 0.00 | 86 | 1011.3 |
| 20260503204051 | 65 | 178 | 3.5 | 6.1 | 0.00 | 0.00 | 0.00 | 86 | 1014.6 |
| 20260503203740 | 65 | 162 | 5.2 | 8.7 | 0.00 | 0.00 | 0.00 | 86 | 1011.3 |
| 20260503203551 | 65 | 146 | 5.2 | 8.7 | 0.00 | 0.00 | 0.00 | 86 | 1014.9 |
| 20260503203241 | 65 | 162 | 6.1 | 8.7 | 0.00 | 0.00 | 0.00 | 86 | 1011.3 |
| 20260503203051 | 65 | 174 | 6.1 | 7.0 | 0.00 | 0.00 | 0.00 | 87 | 1014.9 |
| 20260503202740 | 65 | 161 | 3.5 | 7.0 | 0.00 | 0.00 | 0.00 | 87 | 1011.3 |
| 20260503202551 | 65 | 179 | 2.6 | 7.8 | 0.00 | 0.00 | 0.00 | 87 | 1014.6 |
| 20260503202240 | 65 | 161 | 4.3 | 7.0 | 0.00 | 0.00 | 0.00 | 87 | 1011.1 |
| 20260503202050 | 65 | 170 | 0.9 | 7.0 | 0.00 | 0.00 | 0.00 | 87 | 1014.9 |
| 20260503201740 | 65 | 169 | 3.5 | 5.2 | 0.00 | 0.00 | 0.00 | 86 | 1011.3 |
| 20260503201551 | 65 | 155 | 4.3 | 6.1 | 0.00 | 0.00 | 0.00 | 87 | 1014.9 |
| 20260503201241 | 65 | 188 | 2.6 | 5.2 | 0.00 | 0.00 | 0.00 | 86 | 1011.6 |
| 20260503201052 | 65 | 178 | 3.5 | 4.3 | 0.00 | 0.00 | 0.00 | 86 | 1014.9 |
| 20260503200740 | 65 | 184 | 4.3 | 6.1 | 0.00 | 0.00 | 0.00 | 85 | 1011.6 |
| 20260503200550 | 65 | 174 | 3.5 | 5.2 | 0.00 | 0.00 | 0.00 | 86 | 1014.9 |
| 20260503200241 | 65 | 164 | 3.5 | 6.1 | 0.00 | 0.00 | 0.00 | 84 | 1011.5 |
| 20260503200050 | 65 | 142 | 3.5 | 7.0 | 0.00 | 0.00 | 0.00 | 85 | 1014.9 |
| 20260503195741 | 65 | 165 | 3.5 | 5.2 | 0.00 | 0.00 | 0.00 | 84 | 1011.4 |
| 20260503195550 | 65 | 176 | 2.6 | 4.3 | 0.00 | 0.00 | 0.00 | 84 | 1014.9 |
| 20260503195241 | 65 | 165 | 3.5 | 5.2 | 0.00 | 0.00 | 0.00 | 84 | 1011.6 |
| 20260503195050 | 65 | 146 | 2.6 | 4.3 | 0.00 | 0.00 | 0.00 | 84 | 1014.9 |
| 20260503194740 | 65 | 177 | 3.5 | 4.3 | 0.00 | 0.00 | 0.00 | 83 | 1011.3 |
| 20260503194550 | 65 | 195 | 2.6 | 4.3 | 0.00 | 0.00 | 0.00 | 83 | 1014.9 |
| 20260503194241 | 65 | 158 | 3.5 | 4.3 | 0.00 | 0.00 | 0.00 | 82 | 1011.5 |
| 20260503194050 | 66 | 157 | 2.6 | 4.3 | 0.00 | 0.00 | 0.00 | 83 | 1014.6 |
| 20260503193741 | 66 | 192 | 1.7 | 4.3 | 0.00 | 0.00 | 0.00 | 82 | 1011.4 |
| 20260503193551 | 66 | 175 | 3.5 | 4.3 | 0.00 | 0.00 | 0.00 | 82 | 1014.6 |
| 20260503193241 | 66 | 151 | 3.5 | 3.5 | 0.00 | 0.00 | 0.00 | 82 | 1011.1 |
| 20260503193050 | 66 | 134 | 3.5 | 4.3 | 0.00 | 0.00 | 0.00 | 82 | 1014.6 |
| 20260503192741 | 66 | 136 | 2.6 | 4.3 | 0.00 | 0.00 | 0.00 | 82 | 1010.9 |
| 20260503192550 | 66 | 176 | 2.6 | 4.3 | 0.00 | 0.00 | 0.00 | 81 | 1014.2 |
| 20260503192241 | 66 | 136 | 3.5 | 4.3 | 0.00 | 0.00 | 0.00 | 81 | 1011.0 |
| 20260503192051 | 66 | 134 | 2.6 | 4.3 | 0.00 | 0.00 | 0.00 | 81 | 1014.2 |
| 20260503191740 | 66 | 196 | 2.6 | 4.3 | 0.00 | 0.00 | 0.00 | 81 | 1011.2 |
| 20260503191551 | 66 | 173 | 3.5 | 3.5 | 0.00 | 0.00 | 0.00 | 81 | 1014.6 |
| 20260503191241 | 66 | 172 | 3.5 | 4.3 | 0.00 | 0.00 | 0.00 | 82 | 1011.1 |
| 20260503191051 | 66 | 193 | 3.5 | 5.2 | 0.00 | 0.00 | 0.00 | 81 | 1014.2 |
| 20260503190740 | 67 | 167 | 0.9 | 4.3 | 0.00 | 0.00 | 0.00 | 82 | 1011.0 |
| 20260503190550 | 67 | 178 | 3.5 | 3.5 | 0.00 | 0.00 | 0.00 | 82 | 1014.6 |
| 20260503190241 | 67 | 167 | 0.9 | 4.3 | 0.00 | 0.00 | 0.00 | 82 | 1011.1 |
| 20260503190050 | 67 | 224 | 1.7 | 3.5 | 0.00 | 0.00 | 0.00 | 83 | 1014.6 |
| 20260503185740 | 67 | 271 | 2.6 | 3.5 | 0.00 | 0.00 | 0.00 | 83 | 1011.1 |
| 20260503185550 | 67 | 229 | 2.6 | 4.3 | 0.00 | 0.00 | 0.00 | 83 | 1014.2 |
| 20260503185241 | 67 | 271 | 2.6 | 3.5 | 0.00 | 0.00 | 0.00 | 83 | 1011.1 |
| 20260503185050 | 67 | 241 | 2.6 | 3.5 | 0.00 | 0.00 | 0.00 | 82 | 1014.2 |
| 20260503184740 | 67 | 262 | 5.2 | 5.2 | 0.00 | 0.00 | 0.00 | 81 | 1011.0 |
| 20260503184550 | 67 | 260 | 2.6 | 5.2 | 0.00 | 0.00 | 0.00 | 81 | 1014.2 |
| 20260503184241 | 67 | 262 | 5.2 | 5.2 | 0.00 | 0.00 | 0.00 | 81 | 1011.1 |
| 20260503184051 | 67 | 263 | 3.5 | 3.5 | 0.00 | 0.00 | 0.00 | 80 | 1014.6 |
| 20260503183741 | 67 | 250 | 1.7 | 3.5 | 0.00 | 0.00 | 0.00 | 80 | 1010.9 |
| 20260503183551 | 68 | 227 | 1.7 | 2.6 | 0.00 | 0.00 | 0.00 | 79 | 1014.2 |
| 20260503183240 | 68 | 249 | 1.7 | 3.5 | 0.00 | 0.00 | 0.00 | 79 | 1010.7 |
| 20260503183050 | 68 | 255 | 1.7 | 3.5 | 0.00 | 0.00 | 0.00 | 79 | 1014.2 |
| 20260503182740 | 68 | 247 | 0.9 | 3.5 | 0.00 | 0.00 | 0.00 | 78 | 1010.8 |
| 20260503182551 | 68 | 237 | 0.9 | 2.6 | 0.00 | 0.00 | 0.00 | 78 | 1014.2 |
| 20260503182241 | 68 | 232 | 2.6 | 3.5 | 0.00 | 0.00 | 0.00 | 78 | 1010.8 |
| 20260503182051 | 68 | 232 | 4.3 | 5.2 | 0.00 | 0.00 | 0.00 | 77 | 1014.2 |
| 20260503181740 | 68 | 236 | 1.7 | 4.3 | 0.00 | 0.00 | 0.00 | 76 | 1010.9 |
| 20260503181550 | 68 | 247 | 0.9 | 3.5 | 0.00 | 0.00 | 0.00 | 77 | 1014.2 |
| 20260503181240 | 68 | 210 | 4.3 | 4.3 | 0.00 | 0.00 | 0.00 | 76 | 1010.6 |
| 20260503181051 | 68 | 226 | 3.5 | 3.5 | 0.00 | 0.00 | 0.00 | 76 | 1014.2 |
| 20260503180741 | 68 | 210 | 4.3 | 4.3 | 0.00 | 0.00 | 0.00 | 76 | 1010.5 |
| 20260503180550 | 68 | 202 | 3.5 | 5.2 | 0.00 | 0.00 | 0.00 | 76 | 1013.9 |
| 20260503180240 | 68 | 137 | 1.7 | 4.3 | 0.00 | 0.00 | 0.00 | 75 | 1010.5 |
| 20260503180051 | 68 | 157 | 3.5 | 5.2 | 0.00 | 0.00 | 0.00 | 74 | 1014.2 |
| 20260503175740 | 68 | 132 | 0.9 | 7.8 | 0.00 | 0.00 | 0.00 | 74 | 1010.5 |
| 20260503175551 | 68 | 108 | 0.0 | 4.3 | 0.00 | 0.00 | 0.00 | 74 | 1013.9 |
| 20260503175241 | 68 | 84 | 4.3 | 7.8 | 0.00 | 0.00 | 0.00 | 74 | 1010.6 |
| 20260503175050 | 68 | 186 | 1.7 | 5.2 | 0.00 | 0.00 | 0.00 | 74 | 1013.9 |
| 20260503174741 | 69 | 87 | 1.7 | 7.0 | 0.00 | 0.00 | 0.00 | 74 | 1010.5 |
| 20260503174550 | 69 | 103 | 6.1 | 7.0 | 0.00 | 0.00 | 0.00 | 74 | 1013.9 |
| 20260503174241 | 69 | 87 | 1.7 | 7.0 | 0.00 | 0.00 | 0.00 | 74 | 1010.5 |
| 20260503174050 | 69 | 107 | 3.5 | 7.0 | 0.00 | 0.00 | 0.00 | 73 | 1013.9 |
| 20260503173741 | 69 | 120 | 3.5 | 4.3 | 0.00 | 0.00 | 0.00 | 73 | 1010.5 |
| 20260503173550 | 69 | 53 | 4.3 | 5.2 | 0.00 | 0.00 | 0.00 | 73 | 1013.9 |
| 20260503173241 | 69 | 71 | 4.3 | 7.0 | 0.00 | 0.00 | 0.00 | 73 | 1010.6 |
| 20260503173050 | 69 | 91 | 6.1 | 6.1 | 0.00 | 0.00 | 0.00 | 72 | 1013.9 |
| 20260503172741 | 69 | 85 | 5.2 | 7.0 | 0.00 | 0.00 | 0.00 | 70 | 1010.6 |
| 20260503172551 | 69 | 103 | 7.8 | 7.8 | 0.00 | 0.00 | 0.00 | 70 | 1013.9 |
| 20260503172240 | 70 | 142 | 0.0 | 2.6 | 0.00 | 0.00 | 0.00 | 71 | 1010.4 |
| 20260503172051 | 70 | 27 | 1.7 | 4.3 | 0.00 | 0.00 | 0.00 | 72 | 1013.9 |
| 20260503171740 | 70 | 257 | 1.7 | 3.5 | 0.00 | 0.00 | 0.00 | 68 | 1010.7 |
| 20260503171551 | 71 | 224 | 0.9 | 4.3 | 0.00 | 0.00 | 0.00 | 70 | 1014.2 |
| 20260503171240 | 71 | 121 | 1.7 | 3.5 | 0.00 | 0.00 | 0.00 | 68 | 1010.5 |
| 20260503171051 | 70 | 252 | 0.9 | 2.6 | 0.00 | 0.00 | 0.00 | 69 | 1014.2 |
| 20260503170741 | 71 | 20 | 0.9 | 1.7 | 0.00 | 0.00 | 0.00 | 69 | 1010.6 |
| 20260503170551 | 71 | 324 | 1.7 | 2.6 | 0.00 | 0.00 | 0.00 | 69 | 1013.9 |
| 20260503170240 | 71 | 20 | 0.9 | 1.7 | 0.00 | 0.00 | 0.00 | 69 | 1010.7 |